sat.trackr.live / text

‹ back to catalog

STARLINK-35245

NORAD 65599 · 2025-207H

PAYLOAD ACTIVE UNKNOWN

§ Identity

Operator
Country
US
Launch date
2025-09-13
Launch site
AFWTR
Launch vehicle
Mass (kg)
RCS (m²)

Purposes: comms

External: N2YO · Heavens-Above · Gunter

§ Orbital elements

Epoch: 2026-09-20T22:00:03.000096Z

Period
94.14 min
Inclination
97.2855°
Eccentricity
0.0001321
Mean motion
15.29660694 rev/d
Perigee alt
475.9 km
Apogee alt
477.7 km
Semi-major
6,855.0 km
B*
7.7309e-2
RAAN
326.3942°
Arg perigee
87.6056°
Mean anomaly
78.4674°
Rev number
564

§ Raw data

STARLINK-352451 65599U 25207H   26263.91670139  .02469609  00000+0  77309-1 0  99972 65599  97.2855 326.3942 0001321  87.6056  78.4674 15.29660694  5649

JSON: /api/v1/satellites/65599 · /tle

For live sub-satellite position, see the globe view (requires WebGL).

§ Visibility from observer

Set your observer location to see the next 7 days of passes ≥ 10°. The values pass through the URL so the page stays shareable.

No JS? Fill the form by hand. The geolocation button needs JavaScript.